﻿STRMGAGEID,DATE_TIME,AVG_DISCHARGE,STDDEV_DISCHARGE,MIN_DISCHARGE,MAX_DISCHARGE,N_DISCHARGE,TDAILY_DISCHARGE,AVG_TEMP,STDDEV_TEMP,MIN_TEMP,MAX_TEMP,N_TEMP,AVG_COND,STDDEV_COND,MIN_COND,MAX_COND,N_COND
onyx_lwright,12/4/72,8.6,5.8,0,18,19,146700,,,,,0,,,,,0
onyx_lwright,12/5/72,28.8,18.2,4,52,24,621000,,,,,0,,,,,0
onyx_lwright,12/6/72,38.1,19.4,6,69,29,993600,,,,,0,,,,,0
onyx_lwright,12/7/72,26.9,14.7,8,52,15,363600,,,,,0,,,,,0
onyx_lwright,12/8/72,23.6,10.6,8,38,10,212400,,,,,0,,,,,0
onyx_lwright,12/9/72,26.4,11,7,33,5,118800,,,,,0,,,,,0
onyx_lwright,12/10/72,31.6,9.4,12,43,9,255600,,,,,0,,,,,0
onyx_lwright,12/11/72,57.7,8.9,47,69,6,311400,,,,,0,,,,,0
onyx_lwright,12/12/72,100.1,70.6,9,191,13,1170900,,,,,0,,,,,0
onyx_lwright,12/13/72,167,40.5,126,207,3,450900,,,,,0,,,,,0
onyx_lwright,12/14/72,339,75.4,294,426,3,915300,,,,,0,,,,,0
onyx_lwright,12/15/72,420.5,59.8,357,474,4,1513800,,,,,0,,,,,0
onyx_lwright,12/16/72,268.5,33,200,313,10,2416500,,,,,0,,,,,0
onyx_lwright,12/17/72,154.9,25.5,109,194,7,975600,,,,,0,,,,,0
onyx_lwright,12/18/72,76.5,39.6,13,146,17,1170000,,,,,0,,,,,0
onyx_lwright,12/19/72,90.8,59.8,20,200,18,1470600,,,,,0,,,,,0
onyx_lwright,12/20/72,156.6,53.3,67,228,8,1127700,,,,,0,,,,,0
onyx_lwright,12/21/72,268.6,162.8,16,538,21,5076000,,,,,0,,,,,0
onyx_lwright,12/22/72,395.8,352.5,31,1197,16,5698800,,,,,0,,,,,0
onyx_lwright,12/23/72,705,360.5,307,1343,11,6979500,,,,,0,,,,,0
onyx_lwright,12/24/72,529.6,131.1,375,775,9,4289400,,,,,0,,,,,0
onyx_lwright,12/25/72,556.4,57.4,503,641,5,2503800,,,,,0,,,,,0
onyx_lwright,12/26/72,620.4,144.3,445,920,9,5025600,,,,,0,,,,,0
onyx_lwright,12/27/72,354.7,32.1,323,399,6,1915200,,,,,0,,,,,0
onyx_lwright,12/28/72,229.7,134.2,45,450,11,2274300,,,,,0,,,,,0
onyx_lwright,12/29/72,199.3,103.3,37,317,9,1614600,,,,,0,,,,,0
onyx_lwright,12/30/72,162.8,55,70,237,12,1758600,,,,,0,,,,,0
onyx_lwright,12/31/72,142.4,95.6,17,307,10,1281600,,,,,0,,,,,0
onyx_lwright,1/1/73,82.2,28,33,107,6,443700,,,,,0,,,,,0
onyx_lwright,1/2/73,72.3,20.4,45,98,7,455400,,,,,0,,,,,0
onyx_lwright,1/3/73,51.9,32.7,8,95,17,794700,,,,,0,,,,,0
onyx_lwright,1/4/73,42.5,18,14,72,13,496800,,,,,0,,,,,0
onyx_lwright,1/5/73,33.8,17.3,5,52,6,182700,,,,,0,,,,,0
onyx_lwright,1/6/73,29.9,21.1,6,64,13,350100,,,,,0,,,,,0
onyx_lwright,1/7/73,42.2,18.5,9,67,12,455400,,,,,0,,,,,0
onyx_lwright,1/8/73,57.2,34.8,19,133,12,617400,,,,,0,,,,,0
onyx_lwright,1/9/73,162.6,42.4,118,219,7,1024200,,,,,0,,,,,0
onyx_lwright,1/10/73,241.3,59.8,121,310,10,2171700,,,,,0,,,,,0
onyx_lwright,1/11/73,276.2,94.9,89,417,14,3480300,,,,,0,,,,,0
onyx_lwright,1/12/73,323.3,153.5,78,543,10,2909700,,,,,0,,,,,0
onyx_lwright,1/13/73,261.9,81.7,79,337,12,2828700,,,,,0,,,,,0
onyx_lwright,1/14/73,163.8,123.8,20,307,12,1769400,,,,,0,,,,,0
onyx_lwright,1/15/73,267.6,77.2,136,378,12,2889900,,,,,0,,,,,0
onyx_lwright,1/16/73,182.4,113.1,9,330,15,2462400,,,,,0,,,,,0
onyx_lwright,1/17/73,238.7,113.1,28,408,12,2577600,,,,,0,,,,,0
onyx_lwright,1/18/73,148.5,89.4,7,246,11,1470600,,,,,0,,,,,0
onyx_lwright,1/19/73,104.3,82.8,10,246,15,1407600,,,,,0,,,,,0
onyx_lwright,1/20/73,94.3,49.4,25,188,14,1188000,,,,,0,,,,,0
onyx_lwright,1/21/73,93.2,32.5,76,174,9,755100,,,,,0,,,,,0
onyx_lwright,1/22/73,54.9,29.8,6,104,13,642600,,,,,0,,,,,0
onyx_lwright,1/23/73,41.5,15.3,9,58,11,411300,,,,,0,,,,,0
onyx_lwright,1/24/73,40.9,19.9,5,61,11,405000,,,,,0,,,,,0
onyx_lwright,1/25/73,46.2,28.9,9,85,11,457200,,,,,0,,,,,0
onyx_lwright,1/26/73,81.9,46.1,5,154,15,1105200,,,,,0,,,,,0
onyx_lwright,1/27/73,89.5,59.1,7,174,11,885600,,,,,0,,,,,0
onyx_lwright,1/28/73,67,36.9,12,128,11,663300,,,,,0,,,,,0
onyx_lwright,1/29/73,46.9,25.1,13,91,13,549000,,,,,0,,,,,0
onyx_lwright,1/30/73,45.8,10.3,34,63,6,247500,,,,,0,,,,,0
onyx_lwright,1/31/73,29.8,12.9,15,54,9,241200,,,,,0,,,,,0
onyx_lwright,2/1/73,22.8,9.4,8,37,16,327600,,,,,0,,,,,0
onyx_lwright,2/2/73,40.2,49.4,8,194,14,506700,,,,,0,,,,,0
onyx_lwright,2/3/73,20.9,28,4,87,8,150300,,,,,0,,,,,0
onyx_lwright,2/4/73,3.8,1.3,2,5,5,17100,,,,,0,,,,,0
onyx_lwright,2/5/73,1.6,0.9,1,3,5,7200,,,,,0,,,,,0
onyx_lwright,2/6/73,1,0.8,0,2,4,3600,,,,,0,,,,,0
onyx_lwright,2/7/73,0,0,0,0,3,0,,,,,0,,,,,0
onyx_lwright,12/7/73,0,0,0,0,3,0,,,,,0,,,,,0
onyx_lwright,12/8/73,17,11.8,0,31,27,412200,,,,,0,,,,,0
onyx_lwright,12/9/73,24.6,10.1,12,41,19,420300,,,,,0,,,,,0
onyx_lwright,12/10/73,31.4,17.1,8,56,25,707400,,,,,0,,,,,0
onyx_lwright,12/11/73,25.8,9.7,10,39,19,441900,,,,,0,,,,,0
onyx_lwright,12/12/73,12,2.4,7,17,17,183600,,,,,0,,,,,0
onyx_lwright,12/13/73,14,6.3,6,25,20,251100,,,,,0,,,,,0
onyx_lwright,12/14/73,29.6,4.3,23,36,17,452700,,,,,0,,,,,0
onyx_lwright,12/15/73,45.4,16.4,18,75,28,1143000,,,,,0,,,,,0
onyx_lwright,12/16/73,43.6,18.3,9,63,22,863100,,,,,0,,,,,0
onyx_lwright,12/17/73,68.3,8,58,81,12,737100,,,,,0,,,,,0
onyx_lwright,12/18/73,45.4,5.6,39,58,16,653400,,,,,0,,,,,0
onyx_lwright,12/19/73,26.8,6,18,37,14,337500,,,,,0,,,,,0
onyx_lwright,12/20/73,14.5,3.4,10,19,15,195300,,,,,0,,,,,0
onyx_lwright,12/21/73,17.6,4.5,12,26,11,174600,,,,,0,,,,,0
onyx_lwright,12/22/73,18.9,4.2,12,27,17,289800,,,,,0,,,,,0
onyx_lwright,12/23/73,27.2,2.9,23,32,10,244800,,,,,0,,,,,0
onyx_lwright,12/24/73,26.7,1.9,24,29,7,168300,,,,,0,,,,,0
onyx_lwright,12/25/73,21,2.6,18,25,9,170100,,,,,0,,,,,0
onyx_lwright,12/26/73,49.1,18.9,27,88,20,883800,,,,,0,,,,,0
onyx_lwright,12/27/73,80.1,18.4,44,105,25,1802700,,,,,0,,,,,0
onyx_lwright,12/28/73,94.8,28.8,62,138,13,1108800,,,,,0,,,,,0
onyx_lwright,12/29/73,150.9,16.3,120,175,9,1222200,,,,,0,,,,,0
onyx_lwright,12/30/73,192.3,49.3,146,302,15,2595600,,,,,0,,,,,0
onyx_lwright,12/31/73,364.3,32.7,323,432,13,4262400,,,,,0,,,,,0
onyx_lwright,1/1/74,518,88.3,428,652,9,4195800,,,,,0,,,,,0
onyx_lwright,1/2/74,703.3,61.2,624,831,12,7595100,,,,,0,,,,,0
onyx_lwright,1/3/74,946.2,404.5,394,1550,29,24696000,,,,,0,,,,,0
onyx_lwright,1/4/74,1976.9,369.3,1481,2744,17,30247200,,,,,0,,,,,0
onyx_lwright,1/5/74,2851.9,240.1,2426,3233,11,28233900,,,,,0,,,,,0
onyx_lwright,1/6/74,2966.1,115.9,2744,3157,17,45380700,,,,,0,,,,,0
onyx_lwright,1/7/74,2205.9,425.7,1568,2887,18,35736300,,,,,0,,,,,0
onyx_lwright,1/8/74,1587.9,216.8,1346,2004,15,21437100,,,,,0,,,,,0
onyx_lwright,1/9/74,2062,201.8,1827,2470,20,37115100,,,,,0,,,,,0
onyx_lwright,1/10/74,2352.3,155.8,2065,2582,17,35990100,,,,,0,,,,,0
onyx_lwright,1/11/74,2288.4,172.9,2025,2537,9,18536400,,,,,0,,,,,0
onyx_lwright,1/12/74,1714.6,481.3,1016,2382,14,21603600,,,,,0,,,,,0
onyx_lwright,1/13/74,872.4,55.6,797,958,10,7851600,,,,,0,,,,,0
onyx_lwright,1/14/74,738.3,55.7,690,879,9,5980500,,,,,0,,,,,0
onyx_lwright,1/15/74,587.7,244.9,196,1141,20,10577700,,,,,0,,,,,0
onyx_lwright,1/16/74,617.4,317.7,237,1314,20,11112300,,,,,0,,,,,0
onyx_lwright,1/17/74,585,254.2,133,1125,27,14214600,,,,,0,,,,,0
onyx_lwright,1/18/74,653.1,147.5,402,1001,24,14107500,,,,,0,,,,,0
onyx_lwright,1/19/74,517.2,52.2,441,652,17,7913700,,,,,0,,,,,0
onyx_lwright,1/20/74,323.6,173.7,78,545,20,5823900,,,,,0,,,,,0
onyx_lwright,1/21/74,368.6,176.9,77,652,23,7630200,,,,,0,,,,,0
onyx_lwright,1/22/74,282.1,112.2,60,423,23,5839200,,,,,0,,,,,0
onyx_lwright,1/23/74,329.6,59.4,151,415,17,5043600,,,,,0,,,,,0
onyx_lwright,1/24/74,258.4,135.2,82,415,20,4650300,,,,,0,,,,,0
onyx_lwright,1/25/74,307.8,139.1,89,512,19,5263200,,,,,0,,,,,0
onyx_lwright,1/26/74,198.1,107.9,34,320,15,2673900,,,,,0,,,,,0
onyx_lwright,1/27/74,138.9,103.6,15,267,10,1250100,,,,,0,,,,,0
onyx_lwright,1/28/74,157.3,81.5,27,224,11,1557000,,,,,0,,,,,0
onyx_lwright,1/29/74,129.1,83.5,12,237,15,1743300,,,,,0,,,,,0
onyx_lwright,1/30/74,103.4,55.3,36,221,10,930600,,,,,0,,,,,0
onyx_lwright,1/31/74,128.2,38,96,196,12,1384200,,,,,0,,,,,0
onyx_lwright,2/1/74,93.9,20.2,52,118,12,1014300,,,,,0,,,,,0
onyx_lwright,2/2/74,93.1,45.6,32,149,10,837900,,,,,0,,,,,0
onyx_lwright,12/17/74,695.7,51.4,666,755,3,1878300,,,,,0,,,,,0
onyx_lwright,12/20/74,1476.2,369.9,1001,1770,6,7971300,,,,,0,,,,,0
onyx_lwright,12/21/74,1615,148,1446,1984,22,31977000,,,,,0,,,,,0
onyx_lwright,12/22/74,775.6,370.5,312,1429,17,11866500,,,,,0,,,,,0
onyx_lwright,12/23/74,427.7,76.9,298,539,29,11163600,,,,,0,,,,,0
onyx_lwright,12/24/74,324.5,161.1,53,562,32,9345600,,,,,0,,,,,0
onyx_lwright,12/25/74,625.7,135.7,394,892,31,17457300,,,,,0,,,,,0
onyx_lwright,12/26/74,587.6,161.3,287,892,27,14277600,,,,,0,,,,,0
onyx_lwright,12/27/74,428.3,37.5,369,491,25,9636300,,,,,0,,,,,0
onyx_lwright,12/28/74,554.1,139,428,808,19,9474300,,,,,0,,,,,0
onyx_lwright,12/29/74,996.3,195.2,819,1481,16,14346900,,,,,0,,,,,0
onyx_lwright,12/30/74,1646.6,122.4,1515,1846,12,17783100,,,,,0,,,,,0
onyx_lwright,12/31/74,1572.4,131.1,1363,1827,10,14151600,,,,,0,,,,,0
onyx_lwright,1/1/75,1045.4,54.7,972,1125,9,8468100,,,,,0,,,,,0
onyx_lwright,1/2/75,954.5,92.1,819,1061,17,14603400,,,,,0,,,,,0
onyx_lwright,1/3/75,861.1,106.2,674,1031,17,13174200,,,,,0,,,,,0
onyx_lwright,1/4/75,635.4,53.1,539,745,14,8006400,,,,,0,,,,,0
onyx_lwright,1/5/75,452.3,57,349,556,27,10991700,,,,,0,,,,,0
onyx_lwright,1/6/75,319.6,41.4,247,381,23,6615000,,,,,0,,,,,0
onyx_lwright,1/7/75,367.9,52.2,316,472,13,4304700,,,,,0,,,,,0
onyx_lwright,1/8/75,442.6,20.6,406,481,12,4779900,,,,,0,,,,,0
onyx_lwright,1/9/75,391,44.5,338,472,15,5278500,,,,,0,,,,,0
onyx_lwright,1/10/75,367.2,182,31,618,56,18506700,,,,,0,,,,,0
onyx_lwright,1/11/75,425.9,224.6,52,1016,57,21848400,,,,,0,,,,,0
onyx_lwright,1/12/75,728.8,497.4,69,1695,40,26235000,,,,,0,,,,,0
onyx_lwright,1/13/75,967.7,110.1,854,1188,20,17417700,,,,,0,,,,,0
onyx_lwright,1/14/75,1175.1,193.8,958,1498,14,14806800,,,,,0,,,,,0
onyx_lwright,1/15/75,1501.3,847.8,450,3790,43,58098600,,,,,0,,,,,0
onyx_lwright,1/16/75,1701.2,152.7,1515,1924,12,18372600,,,,,0,,,,,0
onyx_lwright,1/17/75,1544.7,180.6,1235,1846,18,25024500,,,,,0,,,,,0
onyx_lwright,1/18/75,1032.5,338.8,652,1885,27,25090200,,,,,0,,,,,0
onyx_lwright,1/19/75,751.7,223.8,539,1282,27,18267300,,,,,0,,,,,0
onyx_lwright,1/20/75,505.9,63,402,652,23,10472400,,,,,0,,,,,0
onyx_lwright,1/21/75,435.3,19.9,419,463,4,1566900,,,,,0,,,,,0
onyx_lwright,1/24/75,221.2,143.3,29,349,10,1990800,,,,,0,,,,,0
onyx_lwright,1/25/75,259.7,94.3,28,334,23,5374800,,,,,0,,,,,0
onyx_lwright,1/26/75,274.7,31.4,218,309,12,2966400,,,,,0,,,,,0
onyx_lwright,1/27/75,200.9,134.7,5,445,39,7053300,,,,,0,,,,,0
onyx_lwright,1/28/75,81.1,31.6,38,129,17,1241100,,,,,0,,,,,0
onyx_lwright,12/6/75,13.7,10.4,2,22,3,36900,,,,,0,,,,,0
onyx_lwright,12/7/75,65.2,49.7,17,168,28,1643400,,,,,0,,,,,0
onyx_lwright,12/8/75,157.7,78.2,27,308,32,4540500,,,,,0,,,,,0
onyx_lwright,12/9/75,153.9,66.9,35,308,39,5401800,,,,,0,,,,,0
onyx_lwright,12/10/75,153.3,76.7,45,384,28,3863700,,,,,0,,,,,0
onyx_lwright,12/11/75,105.4,46.9,29,181,35,3319200,,,,,0,,,,,0
onyx_lwright,12/12/75,103,31.2,37,153,31,2874600,,,,,0,,,,,0
onyx_lwright,12/13/75,61.8,18,30,90,25,1390500,,,,,0,,,,,0
onyx_lwright,12/14/75,64.7,15.7,26,92,18,1047600,,,,,0,,,,,0
onyx_lwright,12/15/75,92,33.2,32,156,29,2401200,,,,,0,,,,,0
onyx_lwright,12/16/75,108.5,40.2,37,184,25,2440800,,,,,0,,,,,0
onyx_lwright,12/17/75,177.8,73.9,48,294,37,5922000,,,,,0,,,,,0
onyx_lwright,12/18/75,209.4,103.6,46,389,26,4899600,,,,,0,,,,,0
onyx_lwright,12/19/75,273.6,21.7,235,313,14,3447900,,,,,0,,,,,0
onyx_lwright,12/20/75,191,45.5,107,275,22,3781800,,,,,0,,,,,0
onyx_lwright,12/21/75,110.7,10.5,90,123,14,1395000,,,,,0,,,,,0
onyx_lwright,12/22/75,77.6,10.6,58,94,14,978300,,,,,0,,,,,0
onyx_lwright,12/23/75,51.4,5.8,38,59,10,462600,,,,,0,,,,,0
onyx_lwright,12/24/75,39.6,4.7,35,47,8,285300,,,,,0,,,,,0
onyx_lwright,12/25/75,40.7,13.9,30,69,7,256500,,,,,0,,,,,0
onyx_lwright,12/26/75,41,8.8,32,50,4,147600,,,,,0,,,,,0
onyx_lwright,12/27/75,50.5,17.4,34,75,4,181800,,,,,0,,,,,0
onyx_lwright,12/28/75,103.3,12,84,116,6,558000,,,,,0,,,,,0
onyx_lwright,12/29/75,153,20,126,171,4,550800,,,,,0,,,,,0
onyx_lwright,12/30/75,212.2,11.2,201,227,5,954900,,,,,0,,,,,0
onyx_lwright,12/31/75,256.7,31.1,227,289,3,693000,,,,,0,,,,,0
onyx_lwright,1/1/76,282,100.9,75,430,8,2030400,,,,,0,,,,,0
onyx_lwright,1/2/76,189.2,83.7,48,344,9,1532700,,,,,0,,,,,0
onyx_lwright,1/3/76,122.3,65.8,20,223,9,990900,,,,,0,,,,,0
onyx_lwright,1/4/76,70.9,34.2,18,109,11,702000,,,,,0,,,,,0
onyx_lwright,1/5/76,83.5,53.8,15,195,13,976500,,,,,0,,,,,0
onyx_lwright,1/6/76,29.2,8.1,19,42,9,236700,,,,,0,,,,,0
onyx_lwright,1/7/76,26.6,9.3,13,44,10,239400,,,,,0,,,,,0
onyx_lwright,1/8/76,25.3,13.9,15,63,11,250200,,,,,0,,,,,0
onyx_lwright,1/9/76,73.2,7,63,80,5,329400,,,,,0,,,,,0
onyx_lwright,1/10/76,92.8,9.9,84,107,4,333900,,,,,0,,,,,0
onyx_lwright,1/11/76,172.2,25.6,144,198,5,774900,,,,,0,,,,,0
onyx_lwright,1/12/76,203,142.1,32,430,9,1644300,,,,,0,,,,,0
onyx_lwright,1/13/76,369.8,31.7,334,406,4,1331100,,,,,0,,,,,0
onyx_lwright,1/14/76,262,24.9,235,284,3,707400,,,,,0,,,,,0
onyx_lwright,1/15/76,336.3,123.8,168,510,8,2421000,,,,,0,,,,,0
onyx_lwright,1/16/76,366.5,31.8,344,389,2,659700,,,,,0,,,,,0
onyx_lwright,1/17/76,339.3,133.9,171,497,7,2137500,,,,,0,,,,,0
onyx_lwright,1/18/76,428.5,133.6,334,523,2,771300,,,,,0,,,,,0
onyx_lwright,1/19/76,404,179.3,171,733,8,2908800,,,,,0,,,,,0
onyx_lwright,1/20/76,474.8,152.3,201,642,8,3418200,,,,,0,,,,,0
onyx_lwright,1/21/76,399.8,181.1,121,657,11,3958200,,,,,0,,,,,0
onyx_lwright,1/22/76,430,147.9,188,642,9,3483000,,,,,0,,,,,0
onyx_lwright,1/23/76,486.1,77.2,372,613,9,3937500,,,,,0,,,,,0
onyx_lwright,1/24/76,306.3,187.4,48,550,15,4135500,,,,,0,,,,,0
onyx_lwright,1/25/76,334.9,95,153,472,13,3918600,,,,,0,,,,,0
onyx_lwright,1/26/76,237.1,121.6,30,435,14,2987100,,,,,0,,,,,0
onyx_lwright,1/27/76,182.4,109.4,26,378,13,2133900,,,,,0,,,,,0
onyx_lwright,1/28/76,141.6,91,25,294,15,1911600,,,,,0,,,,,0
onyx_lwright,1/29/76,207.3,90,56,339,12,2238300,,,,,0,,,,,0
onyx_lwright,1/30/76,120.5,62.2,29,201,10,1084500,,,,,0,,,,,0
onyx_lwright,1/31/76,102.8,48.8,28,198,10,925200,,,,,0,,,,,0
onyx_lwright,2/1/76,91.8,58.6,25,212,12,990900,,,,,0,,,,,0
onyx_lwright,2/2/76,85.6,52.1,25,195,10,770400,,,,,0,,,,,0
onyx_lwright,2/3/76,125.4,93.3,31,344,9,1016100,,,,,0,,,,,0
onyx_lwright,2/4/76,85,40.3,37,159,10,765000,,,,,0,,,,,0
onyx_lwright,2/5/76,59.4,18.6,28,76,11,587700,,,,,0,,,,,0
onyx_lwright,2/6/76,63.3,47.3,29,156,10,569700,,,,,0,,,,,0
onyx_lwright,2/7/76,41.6,30.9,20,136,12,449100,,,,,0,,,,,0
onyx_lwright,2/8/76,37.7,31.6,16,123,10,339300,,,,,0,,,,,0
onyx_lwright,2/9/76,23,11.5,13,50,9,186300,,,,,0,,,,,0
onyx_lwright,2/10/76,27.2,21.4,8,90,14,342900,,,,,0,,,,,0
onyx_lwright,2/11/76,13,2.4,10,16,4,46800,,,,,0,,,,,0
onyx_lwright,2/12/76,11.3,2.8,8,16,8,81000,,,,,0,,,,,0
onyx_lwright,2/13/76,7.3,0.5,7,8,4,26100,,,,,0,,,,,0
onyx_lwright,2/15/76,2,0,2,2,1,1800,,,,,0,,,,,0
onyx_lwright,12/6/76,20.4,14.1,2,39,7,128700,,,,,0,,,,,0
onyx_lwright,12/7/76,45.7,17,24,76,13,534600,,,,,0,,,,,0
onyx_lwright,12/8/76,88.7,43.6,30,150,9,718200,,,,,0,,,,,0
onyx_lwright,12/9/76,121.8,41.4,48,198,11,1206000,,,,,0,,,,,0
onyx_lwright,12/10/76,320.5,3.5,318,323,2,576900,,,,,0,,,,,0
onyx_lwright,12/11/76,599,103.1,536,718,3,1617300,,,,,0,,,,,0
onyx_lwright,12/12/76,608.3,84.8,497,702,4,2189700,,,,,0,,,,,0
onyx_lwright,12/13/76,389.5,23,378,424,4,1402200,,,,,0,,,,,0
onyx_lwright,12/14/76,394,118.1,318,530,3,1063800,,,,,0,,,,,0
onyx_lwright,12/15/76,523.7,216.6,171,822,6,2827800,,,,,0,,,,,0
onyx_lwright,12/16/76,296.8,50.6,231,344,4,1068300,,,,,0,,,,,0
onyx_lwright,12/17/76,266.8,127.3,30,430,8,1920600,,,,,0,,,,,0
onyx_lwright,12/18/76,267,38.2,216,303,5,1201500,,,,,0,,,,,0
onyx_lwright,12/19/76,129.6,74.6,29,254,8,933300,,,,,0,,,,,0
onyx_lwright,12/20/76,81.4,33.8,30,128,10,732600,,,,,0,,,,,0
onyx_lwright,12/21/76,109,0,109,109,1,98100,,,,,0,,,,,0
onyx_lwright,12/22/76,195.4,47.9,121,246,8,1406700,,,,,0,,,,,0
onyx_lwright,12/23/76,172.6,60.9,52,223,7,1087200,,,,,0,,,,,0
onyx_lwright,12/24/76,158.7,21.2,136,178,3,428400,,,,,0,,,,,0
onyx_lwright,12/25/76,148.7,15.4,131,159,3,401400,,,,,0,,,,,0
onyx_lwright,12/26/76,85.6,42.8,40,131,5,385200,,,,,0,,,,,0
onyx_lwright,12/27/76,69.3,38.2,34,123,4,249300,,,,,0,,,,,0
onyx_lwright,12/28/76,209,19.8,195,223,2,376200,,,,,0,,,,,0
onyx_lwright,12/29/76,290.6,66,184,454,12,3138300,,,,,0,,,,,0
onyx_lwright,12/30/76,306.1,176.8,68,523,10,2754900,,,,,0,,,,,0
onyx_lwright,12/31/76,395.3,254.7,55,813,10,3557700,,,,,0,,,,,0
onyx_lwright,1/1/77,871.9,112.4,702,1004,8,6277500,,,,,0,,,,,0
onyx_lwright,1/2/77,816.4,173.6,497,1050,9,6613200,,,,,0,,,,,0
onyx_lwright,1/3/77,851.5,149.7,680,1041,4,3065400,,,,,0,,,,,0
onyx_lwright,1/4/77,1199.8,455.3,687,2309,11,11878200,,,,,0,,,,,0
onyx_lwright,1/5/77,1032,262.1,781,1448,8,7430400,,,,,0,,,,,0
onyx_lwright,1/6/77,829.6,173.7,599,1121,7,5226300,,,,,0,,,,,0
onyx_lwright,1/7/77,549.3,92.8,430,650,6,2966400,,,,,0,,,,,0
onyx_lwright,1/8/77,394,19.2,367,412,5,1773000,,,,,0,,,,,0
onyx_lwright,1/9/77,296,17,284,308,2,532800,,,,,0,,,,,0
onyx_lwright,1/10/77,429.3,74.2,350,497,3,1159200,,,,,0,,,,,0
onyx_lwright,1/11/77,582.5,84.1,523,642,2,1048500,,,,,0,,,,,0
onyx_lwright,1/12/77,699.7,107.5,620,822,3,1889100,,,,,0,,,,,0
onyx_lwright,1/13/77,682.8,221.3,350,906,9,5530500,,,,,0,,,,,0
onyx_lwright,1/14/77,832.9,169.8,620,1176,8,5996700,,,,,0,,,,,0
onyx_lwright,1/15/77,786.7,53.6,725,822,3,2124000,,,,,0,,,,,0
onyx_lwright,1/16/77,845.8,216.6,497,1203,13,9896400,,,,,0,,,,,0
onyx_lwright,1/17/77,808.6,74.8,702,941,14,10188000,,,,,0,,,,,0
onyx_lwright,1/18/77,547.2,268.3,159,1203,30,14775300,,,,,0,,,,,0
onyx_lwright,1/19/77,352.4,114.4,156,516,34,10782900,,,,,0,,,,,0
onyx_lwright,1/20/77,557.1,171.7,406,1068,23,11531700,,,,,0,,,,,0
onyx_lwright,1/21/77,505.6,65.9,378,642,20,9100800,,,,,0,,,,,0
onyx_lwright,1/22/77,666.5,82.7,606,915,14,8397900,,,,,0,,,,,0
onyx_lwright,1/23/77,872.4,39.7,813,950,14,10992600,,,,,0,,,,,0
onyx_lwright,1/24/77,676.5,301,235,1258,27,16439400,,,,,0,,,,,0
onyx_lwright,1/25/77,506.9,180.2,84,757,37,16878600,,,,,0,,,,,0
onyx_lwright,1/26/77,360.5,145.6,96,599,27,8760600,,,,,0,,,,,0
onyx_lwright,1/27/77,243.9,108.1,29,401,36,7902000,,,,,0,,,,,0
onyx_lwright,1/28/77,255.1,101.7,42,378,9,2066400,,,,,0,,,,,0
onyx_lwright,1/29/77,318.1,286,55,872,8,2290500,,,,,0,,,,,0
onyx_lwright,1/30/77,156.9,85.9,24,350,11,1553400,,,,,0,,,,,0
onyx_lwright,1/31/77,119.7,68.2,26,216,11,1185300,,,,,0,,,,,0
onyx_lwright,2/1/77,129.3,70.4,28,235,10,1163700,,,,,0,,,,,0
onyx_lwright,2/2/77,107.9,65.7,32,275,12,1165500,,,,,0,,,,,0
onyx_lwright,2/3/77,64.4,32.6,24,123,11,637200,,,,,0,,,,,0
onyx_lwright,2/4/77,50.1,33,28,136,10,450900,,,,,0,,,,,0
onyx_lwright,2/5/77,38,20.1,24,80,7,239400,,,,,0,,,,,0
onyx_lwright,2/6/77,24.7,1.2,24,26,3,66600,,,,,0,,,,,0
onyx_lwright,12/27/77,24.6,9.5,2,41,19,421200,,,,,0,,,,,0
onyx_lwright,12/28/77,42.1,25.8,15,105,30,1135800,,,,,0,,,,,0
onyx_lwright,12/29/77,45.3,36.3,15,153,27,1099800,,,,,0,,,,,0
onyx_lwright,12/30/77,29.2,15.5,11,66,34,893700,,,,,0,,,,,0
onyx_lwright,12/31/77,24.5,8.1,9,35,22,484200,,,,,0,,,,,0
onyx_lwright,1/1/78,21.5,2.8,17,26,21,405900,,,,,0,,,,,0
onyx_lwright,1/2/78,21.5,6.8,11,38,26,504000,,,,,0,,,,,0
onyx_lwright,1/3/78,22.7,4,17,30,21,429300,,,,,0,,,,,0
onyx_lwright,1/4/78,22.9,6.2,12,33,28,576900,,,,,0,,,,,0
onyx_lwright,1/5/78,24.2,5,16,33,30,654300,,,,,0,,,,,0
onyx_lwright,1/6/78,26.4,5.6,17,36,28,666000,,,,,0,,,,,0
onyx_lwright,1/7/78,34.6,15.2,15,64,19,592200,,,,,0,,,,,0
onyx_lwright,1/8/78,53.3,23.3,20,96,28,1342800,,,,,0,,,,,0
onyx_lwright,1/9/78,60.8,38.3,17,156,40,2187900,,,,,0,,,,,0
onyx_lwright,1/10/78,51.1,22.6,18,94,27,1242000,,,,,0,,,,,0
onyx_lwright,1/11/78,35.2,9.5,25,59,19,602100,,,,,0,,,,,0
onyx_lwright,1/12/78,34.5,20.6,15,92,42,1305900,,,,,0,,,,,0
onyx_lwright,1/13/78,21.6,2.8,17,25,11,214200,,,,,0,,,,,0
onyx_lwright,1/14/78,21.1,3,17,26,22,417600,,,,,0,,,,,0
onyx_lwright,1/15/78,22.6,5.5,17,34,31,630900,,,,,0,,,,,0
onyx_lwright,1/16/78,15.1,2.8,12,20,8,108900,,,,,0,,,,,0
onyx_lwright,1/17/78,16.3,2,14,19,6,88200,,,,,0,,,,,0
onyx_lwright,1/18/78,9,0.9,8,10,6,48600,,,,,0,,,,,0
onyx_lwright,1/19/78,4,0,4,4,2,7200,,,,,0,,,,,0
onyx_lwright,12/12/78,12.8,8.6,2,20,6,69300,,,,,0,,,,,0
onyx_lwright,12/13/78,19.5,3.6,15,26,15,263700,,,,,0,,,,,0
onyx_lwright,12/14/78,22,7.5,15,41,12,237600,,,,,0,,,,,0
onyx_lwright,12/15/78,20.6,5.1,15,28,8,148500,,,,,0,,,,,0
onyx_lwright,12/16/78,25.8,7.6,16,41,12,278100,,,,,0,,,,,0
onyx_lwright,12/17/78,28.7,6.9,18,37,9,232200,,,,,0,,,,,0
onyx_lwright,12/18/78,26.6,5.4,20,38,11,263700,,,,,0,,,,,0
onyx_lwright,12/19/78,27.1,6.3,20,38,8,195300,,,,,0,,,,,0
onyx_lwright,12/20/78,27.3,7.1,19,38,7,171900,,,,,0,,,,,0
onyx_lwright,12/21/78,34.3,3.8,30,37,3,92700,,,,,0,,,,,0
onyx_lwright,12/22/78,27.3,6.3,18,36,7,171900,,,,,0,,,,,0
onyx_lwright,12/23/78,27.6,7.4,17,41,11,273600,,,,,0,,,,,0
onyx_lwright,12/24/78,39.1,14.3,22,68,9,316800,,,,,0,,,,,0
onyx_lwright,12/25/78,74.7,42.4,30,144,6,403200,,,,,0,,,,,0
onyx_lwright,12/26/78,114,2.8,112,116,2,205200,,,,,0,,,,,0
onyx_lwright,12/27/78,68.5,13.1,50,80,4,246600,,,,,0,,,,,0
onyx_lwright,12/28/78,92,38.7,66,168,6,496800,,,,,0,,,,,0
onyx_lwright,12/29/78,393,161.6,205,672,9,3183300,,,,,0,,,,,0
onyx_lwright,12/30/78,732.5,137.9,635,830,2,1318500,,,,,0,,,,,0
onyx_lwright,12/31/78,749,11.3,741,757,2,1348200,,,,,0,,,,,0
onyx_lwright,1/1/79,875.7,69.2,813,950,3,2364300,,,,,0,,,,,0
onyx_lwright,1/2/79,765.8,54.1,695,822,4,2756700,,,,,0,,,,,0
onyx_lwright,1/3/79,1180.7,249.2,906,1570,7,7438500,,,,,0,,,,,0
onyx_lwright,1/4/79,1631.2,176.4,1410,1896,5,7340400,,,,,0,,,,,0
onyx_lwright,1/5/79,1445.8,557.8,757,2603,12,15614100,,,,,0,,,,,0
onyx_lwright,1/6/79,680.6,215.5,454,1031,7,4287600,,,,,0,,,,,0
onyx_lwright,1/7/79,866,392.6,543,1497,6,4676400,,,,,0,,,,,0
onyx_lwright,1/19/79,220,21.2,205,235,2,396000,,,,,0,,,,,0
onyx_lwright,1/20/79,152.2,63.2,59,231,11,1506600,,,,,0,,,,,0
onyx_lwright,1/21/79,193.5,89.9,32,372,13,2264400,,,,,0,,,,,0
onyx_lwright,1/22/79,175,69.3,31,271,10,1575000,,,,,0,,,,,0
onyx_lwright,1/23/79,102.8,30,54,150,8,739800,,,,,0,,,,,0
onyx_lwright,1/24/79,98.1,56.2,50,271,14,1236600,,,,,0,,,,,0
onyx_lwright,1/25/79,63.7,36.8,21,123,11,630900,,,,,0,,,,,0
onyx_lwright,1/26/79,48.4,22.6,23,90,16,696600,,,,,0,,,,,0
onyx_lwright,1/27/79,35.2,12,18,55,13,412200,,,,,0,,,,,0
onyx_lwright,1/28/79,38.8,8.8,28,55,11,384300,,,,,0,,,,,0
onyx_lwright,1/29/79,52.4,35.4,20,156,14,660600,,,,,0,,,,,0
onyx_lwright,1/30/79,39.8,19,18,82,20,716400,,,,,0,,,,,0
onyx_lwright,1/31/79,34,10.4,19,52,10,306000,,,,,0,,,,,0
onyx_lwright,2/1/79,37,17.8,18,82,12,399600,,,,,0,,,,,0
onyx_lwright,2/2/79,35.7,20,15,82,15,481500,,,,,0,,,,,0
onyx_lwright,2/3/79,32.8,19.1,18,82,9,265500,,,,,0,,,,,0
onyx_lwright,11/25/79,7.3,7.6,2,16,3,19800,,,,,0,,,,,0
onyx_lwright,11/26/79,23.1,5.2,17,32,10,207900,,,,,0,,,,,0
onyx_lwright,11/27/79,27.9,11.6,17,56,10,251100,,,,,0,,,,,0
onyx_lwright,11/28/79,39.6,26,15,92,11,392400,,,,,0,,,,,0
onyx_lwright,11/29/79,43.6,25,19,103,9,352800,,,,,0,,,,,0
onyx_lwright,11/30/79,54.6,26.5,16,94,11,540900,,,,,0,,,,,0
onyx_lwright,12/1/79,92.8,54.3,25,195,12,1002600,,,,,0,,,,,0
onyx_lwright,12/2/79,96.6,43,44,188,9,782100,,,,,0,,,,,0
onyx_lwright,12/3/79,80.9,33,33,126,11,801000,,,,,0,,,,,0
onyx_lwright,12/4/79,175.5,83.2,26,284,13,2053800,,,,,0,,,,,0
onyx_lwright,12/5/79,281.6,160.9,58,523,9,2280600,,,,,0,,,,,0
onyx_lwright,12/6/79,269.4,174.1,29,578,9,2182500,,,,,0,,,,,0
onyx_lwright,12/7/79,147.5,34.9,114,195,4,531000,,,,,0,,,,,0
onyx_lwright,12/8/79,100,60.2,20,195,11,990000,,,,,0,,,,,0
onyx_lwright,12/9/79,126.1,86.5,25,339,16,1815300,,,,,0,,,,,0
onyx_lwright,12/10/79,192,161.2,42,523,7,1209600,,,,,0,,,,,0
onyx_lwright,12/11/79,151.5,72.1,54,280,11,1499400,,,,,0,,,,,0
onyx_lwright,12/12/79,320.8,180.7,44,613,12,3464100,,,,,0,,,,,0
onyx_lwright,12/13/79,653.9,168.4,412,986,11,6473700,,,,,0,,,,,0
onyx_lwright,12/14/79,854.7,421.5,367,1837,17,13077000,,,,,0,,,,,0
onyx_lwright,12/15/79,941,204.2,749,1305,7,5928300,,,,,0,,,,,0